Location: Newark
(48.8833°N, 0.9236°W)
Time: 03:43:38
(UTC+00:00)

Tiros 1 despin weight - Pass Details

Date: 24 November 2019
Orbit: 594 x 642 km, 48.2° (Epoch: 10 December)

Event Time Altitude Azimuth Distance (km) Brightness Sun altitude
Rises 10:32:49 0° 202° (SSW) 2,821 ? 18.5°
Reaches altitude 10° 10:35:43 10° 182° (S) 1,920 ? 18.6°
Maximum altitude 10:38:37 17° 141° (SE) 1,500 ? 18.8°
Drops below altitude 10° 10:41:31 10° 99° (E) 1,926 ? 18.9°
Sets 10:44:26 0° 80° (E) 2,833 ? 19.0°
